Regional Weather Roundup
Issued by NWS

Home | Current Version | Previous Version | Text Only | Print | Product List | Glossary On
Versions: 1 2 3 4 5 6 7 8 9 10 11 12 13 14 15 16 17 18 19 20 21 22 23 24 25 26 27 28 29 30 31 32 33 34 35 36 37 38 39 40 41 42 43 44 45 46 47 48 49 50
000
ASUS44 KOUN 080010
RWROK

WEATHER ROUNDUP FOR OKLAHOMA
NATIONAL WEATHER SERVICE NORMAN OK
600 PM CST SUN FEB 07 2016

NOTE: "FAIR" INDICATES FEW OR NO CLOUDS BELOW 12,000 FEET WITH NO
      SIGNIFICANT WEATHER AND/OR OBSTRUCTIONS TO VISIBILITY.

OKZ001>007-009>012-014-015-017-080100-
NORTHWEST OKLAHOMA AND THE PANHANDLE

CITY           SKY/WX    TMP DP  RH WIND       PRES   REMARKS
GAGE           CLEAR     48  16  27 N17G28    30.26R
6HR MIN TEMP:  48; 6HR MAX TEMP:  59;

GUYMON         CLEAR     43  14  31 N18G25    30.30R
$$

OKZ016-021>023-033>039-044-045-080100-
SOUTHWEST OKLAHOMA

CITY           SKY/WX    TMP DP  RH WIND       PRES   REMARKS
LAWTON/REGL    CLEAR     56  26  31 NE9       30.17R
6HR MIN TEMP:  51; 6HR MAX TEMP:  63;

LAWTON/FT SILL CLEAR     55  28  34 N10       30.15R
FREDERICK      CLEAR     56  28  34 NE12      30.15R
CLINTON        CLEAR     52  21  29 N24G30    30.22R
HOBART         CLEAR     54  28  36 N14       30.19R
ALTUS AFB      CLEAR     57  22  25 N12       30.19R
$$

OKZ018>020-024>031-080100-
CENTRAL OKLAHOMA

CITY           SKY/WX    TMP DP  RH WIND       PRES   REMARKS
OKLAHOMA CITY  PTCLDY    55  25  31 N21G28    30.16R
6HR MIN TEMP:  53; 6HR MAX TEMP:  59;

OKC/WILEY POST CLEAR     54  26  34 N22       30.18R
OKC/TINKER AFB CLEAR     54  25  32 N16       30.15R
STILLWATER     CLEAR     53  23  31 NW12      30.17R
GUTHRIE        CLEAR     54  22  28 N12G21    30.18R
$$

OKZ008-013-054>072-080100-
NORTHEAST OKLAHOMA

CITY           SKY/WX    TMP DP  RH WIND       PRES   REMARKS
TULSA          PTCLDY    54  24  31 NW15      30.11R
6HR MIN TEMP:  50; 6HR MAX TEMP:  61;

TULSA/JONES    CLEAR     56  23  27 NW12G20   30.12S
PONCA CITY     PTCLDY    50  23  34 NW12      30.16S
BARTLESVILLE   CLEAR     51  18  27 NW7       30.14S
MUSKOGEE       CLEAR     52  25  35 NW5       30.12S
$$

OKZ032-040>043-046>053-073>077-080100-
SOUTH CENTRAL/SOUTHEAST OKLAHOMA

CITY           SKY/WX    TMP DP  RH WIND       PRES   REMARKS
ARDMORE/DWNTWN CLEAR     57  25  28 N3        30.14R
MCALESTER      PTCLDY    54  27  35 N7        30.12R
$$




USA.gov is the U.S. government's official web portal to all federal, state and local government web resources and services.